[[{"header":{"parameterUnit":"m.s-1","parameterCategory":1,"la1":30.2991,"la2":30.254,"lo1":-89.0895,"lo2":-89.0444,"dy":0.0017,"dx":0.0017,"nx":28,"ny":28,"refTime":"2023-10-18T21:00:00:Z","depth":0,"parameterNumber":2,"parameterNumberName":"U-component_of_WINDS"},"data":[0,0,0,0,0,0,0,0,0,0,0,0,0,0,0,0,0,0,0,0,0,0,0,0,0,0,0,0,0,0,0,0,0,0,0,0,0,0,0,0,0,0,0,0,0,0,0,0,0,0,0,0,0,0,0,0,0,0,1.1898,1.1899,0,1.1938,1.1938,1.1939,1.192,1.1919,1.1918,1.1917,1.1955,1.1957,1.1959,0,0,0,0,0,0,0,0,0,0,0,0,0,1.1804,1.1805,1.1898,1.1899,1.1899,1.1938,1.1938,1.1939,1.192,1.1919,1.1917,1.1916,1.1954,1.1957,1.1959,0,0,0,0,0,0,0,0,0,0,0,0,0,1.1844,1.1806,1.1898,1.1895,1.1895,1.1937,1.1938,1.1939,1.192,1.1918,1.1917,1.1916,1.1954,1.1957,1.1959,1.2008,0,0,1.1968,1.197,0,0,0,0,0,0,0,0,1.1842,1.1847,1.1895,1.1895,1.1895,1.1922,1.1919,1.1962,1.192,1.191,1.1917,1.1915,1.1945,1.1949,1.1959,1.201,1.2011,1.1969,1.1971,1.1972,1.1973,0,0,0,0,0,0,0,1.1839,1.1846,1.1914,1.1895,1.1896,1.189,1.1894,1.1927,1.1936,1.1911,1.191,1.1915,1.1945,1.1957,1.196,1.2012,1.1969,1.1971,1.1973,1.1974,1.21,1.2102,0,0,0,0,0,0,1.1837,1.1843,1.1913,1.1915,1.1864,1.1893,1.1897,1.1915,1.1935,1.1937,1.1916,1.1914,1.1952,1.1957,1.1961,1.2017,1.1972,1.1975,1.1976,1.2098,1.21,1.2102,0,0,0,0,0,0,1.1835,1.1843,1.1911,1.1879,1.1887,1.1896,1.1916,1.1917,1.1928,1.1939,1.194,1.1926,1.1951,1.1957,1.1996,1.2018,1.1976,1.1979,1.2097,1.2099,1.2101,1.2129,0,0,0,0,0,0,1.1832,1.1842,1.1862,1.188,1.1889,1.1946,1.1917,1.1918,1.1933,1.1931,1.1949,1.1951,1.1951,1.1991,1.1999,1.2021,1.1981,1.2095,1.2098,1.21,1.2126,1.2132,1.2138,0,0,0,0,0,1.1829,1.1868,1.1863,1.1871,1.1913,1.1947,1.1952,1.1952,1.1935,1.1954,1.1961,1.195,1.2015,1.1996,1.2004,1.2027,1.2093,1.2097,1.21,1.2124,1.2131,1.2137,0,0,0,0,0,0,1.1853,1.1871,1.1865,1.1912,1.1928,1.1944,1.1967,1.196,1.1981,1.1978,1.1976,1.198,1.2019,1.2028,1.2006,1.2073,1.2051,1.2057,1.2067,1.2074,1.2079,1.2075,1.1983,0,0,0,0,0,1.1864,1.1891,1.1904,1.1944,1.1953,1.1959,1.1974,1.1972,1.1988,1.1995,1.2005,1.202,1.2044,1.2059,1.2082,1.2128,1.213,1.2148,1.2154,1.2158,1.2162,1.2184,1.2191,1.2114,1.2114,1.2114,0,0,1.1887,1.1899,1.1916,1.1949,1.1962,1.1988,1.1965,1.1994,1.2013,1.1999,1.2035,1.2043,1.206,1.2102,1.2121,1.211,1.2184,1.2163,1.2166,1.2168,1.2188,1.2196,1.2202,1.2116,1.2116,1.2115,0,0,1.194,1.1954,1.1987,1.2,1.2019,1.2022,1.203,1.2047,1.2051,1.2088,1.2077,1.2099,1.2141,1.2153,1.2164,1.2221,1.2211,1.2228,1.2256,1.2278,1.2284,1.2289,1.2307,1.2313,1.2233,1.2233,1.2233,0,1.1966,1.2006,1.2005,1.2035,1.2048,1.2037,1.207,1.2082,1.2107,1.2116,1.2104,1.2154,1.2165,1.2208,1.2222,1.2232,1.224,1.2225,1.2283,1.2289,1.2294,1.231,1.2317,1.2235,1.2234,1.2234,1.2234,0,1.2034,1.2062,1.2086,1.211,1.2127,1.2158,1.2161,1.2178,1.2174,1.2178,1.2214,1.2227,1.2251,1.2261,1.2259,1.2303,1.2295,1.2284,1.2261,1.2303,1.2318,1.2325,1.2237,1.2236,1.2236,1.2236,0,0,1.2104,1.2127,1.2136,1.2145,1.2165,1.2185,1.2215,1.2238,1.2251,1.2269,1.2292,1.2327,1.2315,1.2328,1.2326,1.2345,1.2386,1.2331,1.2331,1.2338,1.2432,1.244,1.2447,1.238,1.2381,1.2382,1.243,0,1.2158,1.2209,1.2209,1.2257,1.228,1.227,1.2295,1.2309,1.2313,1.2333,1.2338,1.2361,1.2346,1.2353,1.2372,1.2377,1.2404,1.2374,1.2399,1.24,1.2393,1.2456,1.2464,1.2508,1.2436,1.2437,1.2438,0,1.2227,1.2245,1.2295,1.2309,1.2319,1.2342,1.2361,1.2382,1.2396,1.2398,1.2412,1.2406,1.2434,1.2412,1.245,1.2429,1.2439,1.2443,1.2445,1.2446,1.242,1.2456,1.2523,1.2529,1.2448,1.2447,1.2447,0,1.2269,1.2307,1.2341,1.235,1.2368,1.2383,1.2391,1.2405,1.2418,1.2435,1.2443,1.2464,1.2474,1.249,1.2489,1.2474,1.2526,1.2505,1.2527,1.2527,1.2537,1.2536,1.2604,1.2548,1.2548,1.2547,1.2547,0,1.2327,1.2357,1.236,1.2381,1.2413,1.2412,1.2444,1.2451,1.2462,1.2483,1.2475,1.2494,1.2494,1.2513,1.2513,1.2543,1.2548,1.2549,1.2548,1.2548,1.2548,1.2554,1.255,1.2549,1.2549,1.2548,1.2548,0,1.2379,1.2383,1.2419,1.2432,1.2436,1.2459,1.247,1.2488,1.2492,1.2518,1.2524,1.2529,1.2551,1.2553,1.2578,1.2578,1.2613,1.261,1.2608,1.2607,1.2627,1.2625,1.27,1.2709,1.2649,1.265,1.265,0,1.2415,1.2438,1.2453,1.2466,1.2475,1.2496,1.2509,1.2509,1.2523,1.254,1.2556,1.2577,1.2594,1.2629,1.2635,1.2654,1.2649,1.2675,1.2652,1.2651,1.2647,1.2644,1.2646,1.2678,1.2679,1.268,1.268,0,1.2477,1.2477,1.2496,1.2516,1.2532,1.2547,1.2561,1.2572,1.2573,1.2589,1.2611,1.2624,1.2649,1.267,1.2688,1.2695,1.2687,1.2687,1.2693,1.2692,1.2689,1.2688,1.2617,1.2685,1.2685,1.2684,1.2684,1.2684,1.252,1.2539,1.2552,1.2573,1.2583,1.2597,1.2614,1.2619,1.2638,1.2659,1.2657,1.2681,1.2693,1.2717,1.2725,1.2743,1.2734,1.2743,1.2745,1.2746,1.2747,1.2688,1.2746,1.2746,1.2746,1.2746,1.2746,0,1.2579,1.2587,1.2606,1.2626,1.2642,1.2634,1.2649,1.2663,1.2684,1.2696,1.2712,1.2737,1.2756,1.2763,1.2781,1.2794,1.279,1.2798,1.2796,1.2797,1.2755,1.2747,1.28,1.28,1.28,1.28,1.28,1.28,1.2612,1.2642,1.2643,1.2678,1.2685,1.2708,1.2717,1.2728,1.2738,1.2765,1.2781,1.2785,1.2795,1.2813,1.283,1.2831,1.2837,1.2846,1.2846,1.2806,1.2801,1.2795,1.2788,1.2848,1.2848,1.2886,1.2887,1.2887]},{"header":{"parameterUnit":"m.s-1","parameterCategory":1,"la1":30.2991,"la2":30.254,"lo1":-89.0895,"lo2":-89.0444,"dy":0.0017,"dx":0.0017,"nx":28,"ny":28,"refTime":"2023-10-18T21:00:00:Z","depth":0,"parameterNumber":3,"parameterNumberName":"V-component_of_WINDS"},"data":[0,0,0,0,0,0,0,0,0,0,0,0,0,0,0,0,0,0,0,0,0,0,0,0,0,0,0,0,0,0,0,0,0,0,0,0,0,0,0,0,0,0,0,0,0,0,0,0,0,0,0,0,0,0,0,0,0,0,3.9562,3.9564,0,3.9666,3.9667,3.9668,3.9634,3.9632,3.963,3.9628,3.9728,3.9732,3.9737,0,0,0,0,0,0,0,0,0,0,0,0,0,3.9327,3.9332,3.9562,3.9564,3.9565,3.9666,3.9667,3.9668,3.9635,3.9632,3.9629,3.9627,3.9726,3.9732,3.9737,0,0,0,0,0,0,0,0,0,0,0,0,0,3.943,3.9333,3.9562,3.956,3.9561,3.9665,3.9667,3.9669,3.9635,3.9632,3.9629,3.9626,3.9724,3.9731,3.9738,3.9848,0,0,3.976,3.9763,0,0,0,0,0,0,0,0,3.9424,3.9438,3.9559,3.9561,3.9562,3.9634,3.9621,3.9729,3.9636,3.9607,3.9628,3.9624,3.9699,3.9708,3.9734,3.9853,3.9857,3.976,3.9765,3.9768,3.977,0,0,0,0,0,0,0,3.9417,3.9434,3.9603,3.9561,3.9563,3.9552,3.9563,3.9641,3.967,3.9609,3.9607,3.962,3.9699,3.9727,3.9736,3.9858,3.976,3.9766,3.9771,3.9774,4.0067,4.0071,0,0,0,0,0,0,3.941,3.9428,3.96,3.9606,3.9484,3.9559,3.9571,3.9614,3.9669,3.9674,3.9623,3.9618,3.9717,3.9728,3.974,3.9869,3.9768,3.9774,3.9778,4.0064,4.0068,4.0072,0,0,0,0,0,0,3.9405,3.9426,3.9596,3.9517,3.9537,3.9566,3.9615,3.9618,3.9647,3.968,3.9684,3.9648,3.9715,3.973,3.9821,3.9872,3.9777,3.9784,4.006,4.0065,4.007,4.013,0,0,0,0,0,0,3.9399,3.9424,3.9469,3.9518,3.9542,3.9678,3.9618,3.9622,3.966,3.9654,3.9704,3.9708,3.9713,3.981,3.9828,3.988,3.9789,4.0055,4.0062,4.0069,4.0124,4.0137,4.0148,0,0,0,0,0,3.939,3.9481,3.9471,3.9492,3.9598,3.9681,3.9694,3.97,3.9664,3.9707,3.9727,3.9707,3.9864,3.982,3.9839,3.9894,4.0052,4.006,4.0068,4.0118,4.0134,4.0148,0,0,0,0,0,0,3.9435,3.9487,3.9477,3.9587,3.963,3.9675,3.973,3.9717,3.977,3.9762,3.9765,3.9776,3.9869,3.9891,3.9841,4.0001,3.9952,3.9964,3.9984,3.9999,4.0011,4.0003,3.9795,0,0,0,0,0,3.9458,3.9524,3.9565,3.9657,3.968,3.9701,3.9737,3.9738,3.9781,3.9799,3.9826,3.9868,3.9925,3.9964,4.002,4.0127,4.0135,4.0174,4.0186,4.0196,4.0206,4.026,4.0277,4.0098,4.0098,4.0098,0,0,3.9506,3.9542,3.9583,3.9667,3.9701,3.9765,3.9717,3.9788,3.9834,3.9809,3.9896,3.9918,3.9964,4.0062,4.0107,4.0083,4.0257,4.0206,4.0214,4.0218,4.027,4.0287,4.0302,4.0104,4.0103,4.0102,0,0,3.9625,3.9661,3.974,3.9774,3.9826,3.9839,3.9858,3.9905,3.9918,4.0007,3.9988,4.0042,4.0144,4.0176,4.0206,4.0334,4.0315,4.0352,4.0415,4.0468,4.0482,4.0494,4.0536,4.0552,4.0362,4.0362,4.0362,0,3.9676,3.9775,3.9782,3.9854,3.9889,3.9871,3.9949,3.9981,4.0048,4.0071,4.0044,4.0169,4.0199,4.0303,4.0334,4.036,4.0378,4.0346,4.048,4.0492,4.0504,4.0544,4.056,4.0366,4.0366,4.0365,4.0365,0,3.9834,3.9903,3.996,4.0025,4.0068,4.0143,4.0157,4.0199,4.0195,4.021,4.0297,4.0333,4.0393,4.0419,4.0416,4.0521,4.0504,4.0479,4.0429,4.0524,4.0562,4.0578,4.0372,4.037,4.0369,4.0368,0,0,3.9984,4.0051,4.0072,4.01,4.0154,4.0206,4.0278,4.0339,4.0372,4.0418,4.0476,4.0561,4.0537,4.0571,4.0571,4.0618,4.0712,4.0586,4.0586,4.0605,4.0826,4.0843,4.0861,4.0701,4.0704,4.0707,4.0821,0,4.0105,4.0234,4.0241,4.0357,4.0417,4.04,4.0462,4.05,4.0516,4.0567,4.0583,4.0642,4.0608,4.0627,4.0673,4.0691,4.0756,4.0683,4.0751,4.0754,4.0738,4.0882,4.0901,4.1007,4.0836,4.0839,4.0841,0,4.0264,4.0315,4.0437,4.0479,4.0505,4.0561,4.0615,4.0667,4.0708,4.0716,4.0752,4.0745,4.0815,4.0765,4.0859,4.0809,4.0837,4.085,4.0854,4.0858,4.0801,4.0887,4.1042,4.1056,4.0865,4.0863,4.0861,0,4.0356,4.0456,4.0541,4.0566,4.0619,4.0657,4.0681,4.0719,4.0754,4.0801,4.0823,4.0877,4.0906,4.0947,4.0953,4.0916,4.1046,4.0997,4.1051,4.1051,4.1078,4.1075,4.1236,4.1101,4.11,4.11,4.11,0,4.0489,4.0563,4.0583,4.0635,4.0716,4.0722,4.0802,4.0822,4.0856,4.0909,4.0897,4.0946,4.0953,4.1003,4.1008,4.1083,4.1097,4.1102,4.1102,4.1102,4.1101,4.1119,4.111,4.1104,4.1103,4.1103,4.1102,0,4.0606,4.0622,4.0713,4.0755,4.0768,4.0825,4.086,4.0908,4.0922,4.0989,4.1005,4.1026,4.1084,4.1095,4.1163,4.1166,4.1255,4.1249,4.1241,4.124,4.1292,4.1286,4.1468,4.149,4.1343,4.1344,4.1345,0,4.0688,4.0745,4.0793,4.0828,4.0854,4.0911,4.0947,4.0954,4.0991,4.1041,4.1082,4.1139,4.1185,4.1278,4.1298,4.1349,4.1342,4.1402,4.1349,4.1346,4.1339,4.1334,4.1338,4.1411,4.1413,4.1414,4.1415,0,4.0831,4.0835,4.0889,4.0944,4.0987,4.103,4.1071,4.11,4.1112,4.1153,4.1213,4.1249,4.1319,4.1374,4.1425,4.1445,4.1431,4.1432,4.1447,4.1446,4.1438,4.1439,4.1266,4.1427,4.1426,4.1425,4.1425,4.1424,4.0931,4.0979,4.102,4.1078,4.111,4.1148,4.1194,4.1213,4.1264,4.1322,4.1323,4.1387,4.1424,4.1491,4.1515,4.1563,4.1544,4.1566,4.1571,4.1575,4.1579,4.1432,4.1573,4.1572,4.1572,4.1572,4.1572,0,4.107,4.1095,4.1149,4.1206,4.1251,4.1236,4.128,4.1317,4.1375,4.1412,4.1457,4.1524,4.1577,4.1601,4.1652,4.1686,4.168,4.1699,4.1695,4.1699,4.1595,4.1576,4.1702,4.1702,4.1702,4.1702,4.1702,4.1702,4.1147,4.1227,4.1236,4.133,4.1354,4.1419,4.1445,4.1478,4.1507,4.1583,4.1627,4.1643,4.1673,4.1726,4.1773,4.1778,4.1796,4.1817,4.1819,4.1721,4.1707,4.1694,4.1676,4.1822,4.1822,4.1919,4.192,4.192]}]]